Gulfport, MS Weather Center

Moon Phase Calendar



Online Cameras

 


      

Current Conditions in Gulfport
11/27/2022 8:41:53 PM

61°F
Feels Like 61
Clear
Humidity
86%
Pressure
29.91"
Wind
6.9 mph (SW)
Dew Point
57°F
UV Index
0/10 (Low)
Visibility
6 mi

Hourly Forecast

Date & Time Sun, Nov 27
8:00 PM
Sun, Nov 27
9:00 PM
Sun, Nov 27
10:00 PM
Sun, Nov 27
11:00 PM
Mon, Nov 28
12:00 AM
Mon, Nov 28
1:00 AM
Mon, Nov 28
2:00 AM
Mon, Nov 28
3:00 AM
Mon, Nov 28
4:00 AM
Mon, Nov 28
5:00 AM
Mon, Nov 28
6:00 AM
Mon, Nov 28
7:00 AM
Mon, Nov 28
8:00 AM
Mon, Nov 28
9:00 AM
Mon, Nov 28
10:00 AM
Mon, Nov 28
11:00 AM
Mon, Nov 28
12:00 PM
Mon, Nov 28
1:00 PM
Mon, Nov 28
2:00 PM
Mon, Nov 28
3:00 PM
Mon, Nov 28
4:00 PM
Mon, Nov 28
5:00 PM
Mon, Nov 28
6:00 PM
Mon, Nov 28
7:00 PM
Mon, Nov 28
8:00 PM
Mon, Nov 28
9:00 PM
Mon, Nov 28
10:00 PM
Mon, Nov 28
11:00 PM
Tue, Nov 29
12:00 AM
Tue, Nov 29
1:00 AM
Tue, Nov 29
2:00 AM
Tue, Nov 29
3:00 AM
Tue, Nov 29
4:00 AM
Tue, Nov 29
5:00 AM
Tue, Nov 29
6:00 AM
Tue, Nov 29
7:00 AM
Tue, Nov 29
8:00 AM
Tue, Nov 29
9:00 AM
Tue, Nov 29
10:00 AM
Tue, Nov 29
11:00 AM
Tue, Nov 29
12:00 PM
Tue, Nov 29
1:00 PM
Tue, Nov 29
2:00 PM
Tue, Nov 29
3:00 PM
Tue, Nov 29
4:00 PM
Tue, Nov 29
5:00 PM
Tue, Nov 29
6:00 PM
Tue, Nov 29
7:00 PM
Condition
Clear

Clear

Clear

Clear

Clear

Clear

Clear

Clear

Clear

Clouds

Clouds

Clouds

Clear

Clear

Clear

Clear

Clear

Clear

Clear

Clear

Clear

Clear

Clear

Clear

Clear

Clear

Clear

Clear

Clear

Clear

Clear

Clear

Clear

Clear

Clear

Clear

Clear

Clear

Clouds

Rain

Rain

Rain

Rain

Rain

Rain

Rain

Rain

Rain
Temperature 62°F61°F61°F61°F61°F60°F59°F59°F59°F58°F58°F57°F59°F61°F63°F65°F66°F66°F66°F65°F64°F61°F61°F61°F61°F60°F60°F60°F61°F61°F62°F62°F63°F63°F63°F64°F66°F68°F69°F67°F67°F68°F68°F69°F69°F68°F68°F68°F
Feels Like 61°F61°F61°F61°F61°F60°F59°F59°F59°F58°F57°F57°F58°F60°F63°F64°F65°F65°F65°F65°F64°F61°F60°F60°F60°F60°F60°F60°F61°F61°F62°F62°F63°F63°F63°F64°F66°F69°F69°F68°F68°F68°F69°F70°F70°F69°F69°F69°F
Cloudiness 0%0%0%0%0%2%5%7%9%11%12%13%9%6%5%4%3%0%0%0%0%0%0%0%0%0%0%0%0%0%0%3%5%6%7%10%9%6%26%41%51%100%96%82%75%69%68%60%
Visibility 6 mi6 mi6 mi6 mi6 mi6 mi6 mi6 mi6 mi6 mi6 mi6 mi6 mi6 mi6 mi6 mi6 mi6 mi6 mi6 mi6 mi6 mi6 mi6 mi6 mi6 mi6 mi6 mi6 mi6 mi6 mi6 mi6 mi6 mi6 mi6 mi6 mi6 mi6 mi6 mi6 mi6 mi6 mi6 mi6 mi6 mi6 mi6 mi
Precipitation 0%0%0%0%0%0%0%0%0%0%0%0%0%0%0%0%0%0%0%0%0%0%0%0%0%0%0%0%0%0%0%0%0%0%0%0%0%0%2%34%36%80%80%82%83%81%85%58%
Humidity 84%86%85%87%89%91%94%95%96%96%95%94%88%79%71%66%64%64%64%66%72%77%77%77%77%80%83%87%91%93%94%94%94%94%93%93%89%85%84%90%94%95%95%94%96%98%98%98%
Dew Point 57°F57°F57°F57°F57°F57°F57°F58°F57°F57°F56°F55°F55°F54°F54°F53°F52°F52°F53°F53°F55°F54°F53°F53°F53°F54°F55°F56°F58°F59°F60°F60°F61°F61°F61°F61°F63°F63°F64°F64°F65°F66°F67°F67°F67°F67°F67°F67°F
Pressure 29.91"29.91"29.91"29.94"29.94"29.97"29.97"29.97"29.97"29.97"30"30.03"30.03"30.06"30.06"30.06"30.03"30"30"30"30"30"30.03"30.03"30.03"30.06"30.03"30.03"30.03"30.03"30"30"30"30"30"30.03"30.03"30.06"30.03"30.03"30"29.97"29.94"29.94"29.94"29.94"29.97"29.97"
Wind Speed 7.4 mph8.9 mph9.2 mph8.5 mph7.9 mph7.2 mph7 mph6.9 mph6.6 mph6.6 mph6.1 mph5.4 mph4.9 mph3.7 mph2.9 mph2.6 mph3.3 mph4.4 mph5 mph4.6 mph3.7 mph3.7 mph3.5 mph3.4 mph4.1 mph4.8 mph5.3 mph6.1 mph6.6 mph6.8 mph6.8 mph7.4 mph7.7 mph7.9 mph8.4 mph9.2 mph10.3 mph11.3 mph11.7 mph11.2 mph11.2 mph11.7 mph12.8 mph13.8 mph13.7 mph13 mph12.3 mph12.3 mph
Wind
Direction
225°
SW
232°
SW
245°
WSW
258°
WSW
265°
W
268°
W
271°
W
276°
W
282°
WNW
290°
WNW
300°
WNW
310°
NW
314°
NW
309°
NW
299°
WNW
270°
W
231°
SW
209°
SSW
199°
SSW
193°
SSW
177°
S
164°
SSE
155°
SSE
144°
SE
141°
SE
143°
SE
139°
SE
140°
SE
139°
SE
132°
SE
125°
SE
122°
ESE
116°
ESE
111°
ESE
112°
ESE
115°
ESE
118°
ESE
121°
ESE
125°
SE
124°
SE
126°
SE
127°
SE
139°
SE
143°
SE
143°
SE
147°
SSE
149°
SSE
151°
SSE

Daily Forecast

Date High Low Precip. Humidity
Today
Nov 27

Clear
67 °F
56 °F
0%
61%
Monday
Nov 28

Clear
66 °F
57 °F
0%
66%
Tuesday
Nov 29

Rain
69 °F
61 °F
85%
94%
Wednesday
Nov 30

Rain
70 °F
52 °F
100%
89%
Thursday
Dec 1

Clouds
59 °F
43 °F
0%
42%
Friday
Dec 2

Clear
65 °F
49 °F
0%
78%
Saturday
Dec 3

Clouds
69 °F
65 °F
0%
85%
Sunday
Dec 4

Clouds
69 °F
64 °F
0%
80%
Monday
Dec 5

Clouds
69 °F
63 °F
0%
81%
Tuesday
Dec 6

Rain
70 °F
64 °F
76%
89%
Wednesday
Dec 7

Rain
69 °F
64 °F
89%
90%
Thursday
Dec 8

Rain
69 °F
59 °F
20%
85%
Friday
Dec 9

Clouds
59 °F
49 °F
0%
70%
Saturday
Dec 10

Clouds
48 °F
42 °F
0%
64%
Sunday
Dec 11

Clear
55 °F
40 °F
0%
39%
Monday
Dec 12

Clear
56 °F
41 °F
0%
36%

Temperature 8-14 Day Outlook



Precipitation 8-14 Day Outlook




Quick Links
Gulfport, MS News
Gulfport, MS Photos
Gulfport, MS Videos




About Us
Contact Us
Site Map
Search Site
Advertise With Us
   
Gulfport.CoastalTown.com
THE GULFPORT, MS WEBSITE

Copyright 2022, Coastal Town
Privacy    |    Legal